Location: Newark
(31.5350°N, 35.0986°E)
Time: 10:57:12
(UTC+00:00)

Courier 1B - Pass Details

Date: 26 September 2019
Orbit: 962 x 1209 km, 28.3° (Epoch: 19 October)

Event Time Altitude Azimuth Distance (km) Brightness Sun altitude
Exits shadow 01:20:09 47° 179° (S) 1,258 7.9 -28.1°
Maximum altitude 01:20:40 49° 164° (SSE) 1,245 7.9 -28.0°
Drops below altitude 10° 01:27:04 10° 92° (E) 2,780 10.8 -26.7°
Sets 01:29:54 0° 87° (E) 3,766 11.8 -26.1°
